Location: Austin
(30.3000°N, 97.7500°W)
Time: 06:04:27
(UTC-06:00)

Resurs 01 Rocket - Pass Details

Date: 03 March 2026
Orbit: 627 x 635 km, 97.7° (Epoch: 6 March)

Event Time Altitude Azimuth Distance (km) Brightness Sun altitude
Rises 18:50:13 0° 139° (SE) 2,916 4.7 -4.9°
Reaches altitude 10° 18:52:43 10° 126° (SE) 2,012 3.7 -5.4°
Maximum altitude 18:56:16 25° 72° (ENE) 1,298 2.7 -6.2°
Drops below altitude 10° 18:59:50 10° 18° (NNE) 2,022 4.0 -6.9°
Sets 19:02:20 0° 5° (N) 2,934 4.9 -7.5°
